Weather in Tsentralny

Russia / Kemerovo Oblast     55°12′32″N   87°38′46″E
temp.,
°C
wind,
m/s
gust,
m/s
humid.,
%
clouds,
%
prec.,
mm/h
press.,
hPa
HPBL,
m
21 may, sat
sat2101:00+13ssw4145367 0.0 1013553
04:00+13ssw51358100 0.0 1012875
07:00+13sw6136296 0.1 10131239
10:00+13wsw41066100 0.1 10141020
13:00+18wsw5104889 0.1 10141652
16:00+17wsw3854100 0.0 10131364
19:00+19wsw375412 0.0 10121196
22:00+13sse237432 0.0 101242
22 may, sun
sun2201:00+13sse23725 0.0 101143
04:00+12se22715 0.0 100913
07:00+15e256722 0.0 1008126
10:00+22e59395 0.0 1005999
13:00+25ese5632100 0.0 10031453
16:00+27ese352772 0.0 10022113
19:00+23wsw2246100 0.0 100239
22:00+18ssw2254100 0.0 100419
23 may, mon
mon2301:00+15sse1179100 0.1 100611
04:00+16ssw2272100 0.0 100838
07:00+13wsw51093100 0.7 1013653
10:00+10sw5973100 0.3 1018768
13:00+10ssw4972100 0.4 1021869
16:00+11ssw5769100 0.0 1022986
19:00+13ssw35520 0.0 10211007
22:00+8sse22775 0.0 102240
24 may, tue
tue2401:00+6se21795 0.0 102212
04:00+6ese117666 0.0 102210
07:00+10e11635 0.0 102184
10:00+17se00335 0.0 1019611
13:00+22nw11240 0.0 10171290
16:00+22nnw212390 0.0 10161568
19:00+19n2344100 0.0 1016100
22:00+13ne1156100 0.0 101711
25 may, wed
wed2501:00+11ene215418 0.0 101711
04:00+10ene115680 0.0 101811
07:00+14ne12550 0.0 101874
10:00+21ne36412 0.0 10181032
13:00+24n45340 0.0 10171834
16:00+23nne56380 0.0 10171726
19:00+21nne46520 0.0 1017907
22:00+14ne23781 0.0 101948